This is the latest recevied weather packets stored in our database for station/object N2OCK. If no packets are shown the sender has not sent any weather packets the latest 10 day(s).
| Time | Temp. | Humidity | Pressure | Rain* | Wind** | Luminosity | Snow |
|---|---|---|---|---|---|---|---|
| 1778012122 | 20.56° C | 64% | 1009.4 hPa | 0 mm | - | 462 W/m² | - |
| 1778011819 | 20.56° C | 65% | 1009.4 hPa | 0 mm | - | 470 W/m² | - |
| 1778011517 | 20.56° C | 64% | 1009.4 hPa | 0 mm | - | 485 W/m² | - |
| 1778011214 | 20° C | 64% | 1009.5 hPa | 0 mm | - | 498 W/m² | - |
| 1778010910 | 20.56° C | 64% | 1009.6 hPa | 0 mm | - | 507 W/m² | - |
| 1778010607 | 20.56° C | 64% | 1009.6 hPa | 0 mm | - | 510 W/m² | - |
| 1778010305 | 20.56° C | 63% | 1009.8 hPa | 0 mm | - | 528 W/m² | - |
| 1778010004 | 20.56° C | 64% | 1009.6 hPa | 0 mm | - | 540 W/m² | - |
| 1778009702 | 20.56° C | 63% | 1009.7 hPa | 0 mm | - | 535 W/m² | - |
| 1778009399 | 20.56° C | 63% | 1009.9 hPa | 0 mm | - | 520 W/m² | - |
| 1778009098 | 20.56° C | 63% | 1010.1 hPa | 0 mm | - | 562 W/m² | - |
| 1778008795 | 20.56° C | 63% | 1010.1 hPa | 0 mm | - | 582 W/m² | - |
| 1778008494 | 21.11° C | 62% | 1010.2 hPa | 0 mm | - | 595 W/m² | - |
| 1778008190 | 20.56° C | 64% | 1010.1 hPa | 0 mm | - | 603 W/m² | - |
| 1778007885 | 20.56° C | 64% | 1010.3 hPa | 0 mm | - | 612 W/m² | - |
| 1778007581 | 20.56° C | 65% | 1010.5 hPa | 0 mm | - | 621 W/m² | - |
| 1778007279 | 20.56° C | 66% | 1010.3 hPa | 0 mm | - | 629 W/m² | - |
| 1778006974 | 21.11° C | 65% | 1010.6 hPa | 0 mm | - | 640 W/m² | - |
| 1778006672 | 20.56° C | 64% | 1010.5 hPa | 0 mm | - | 647 W/m² | - |
| 1778006368 | 21.11° C | 64% | 1010.5 hPa | 0 mm | - | 656 W/m² | - |
| 1778006065 | 21.11° C | 63% | 1010.7 hPa | 0 mm | - | 663 W/m² | - |
| 1778005762 | 21.11° C | 63% | 1010.6 hPa | 0 mm | - | 670 W/m² | - |
| 1778005459 | 21.11° C | 64% | 1010.5 hPa | 0 mm | - | 677 W/m² | - |
| 1778005155 | 21.11° C | 64% | 1010.7 hPa | 0 mm | - | 682 W/m² | - |
| 1778004853 | 21.11° C | 65% | 1010.5 hPa | 0 mm | - | 689 W/m² | - |
* Rain latest hour (hover to see other rain measurements)
** Current wind speed in m/s (hover to see current wind gust speed)